Погода Ерофей Павлович

Погода Ерофей Павлович : погода сейчас, прогноз погоды и архив. Всё, что Вы хотите узнать о погоде Ерофей Павлович!

Хотите узнать прогноз погоды Ерофей Павлович? Тогда Вам сюда: Погода Ерофей Павлович

Поиск расширенной информации на нашем сайте:

Другие новости

Новости СМИ2

Главная страница сайта

Новости сайта

03.07.2017

Напоминаем, что на нашем специализированном сайте Метеоцентр.Азия вы можете получить высокодетализированные автоматические прогнозы погоды по пунктам России, СНГ и мира в авиационном формате (включающие направление и скорость ветра, видимость, явления погоды, количество и форму облачности, нижнюю и верхнюю границу облачности).

Рекомендуем: купить квартиру в Челябинске

Погода Ерофей Павлович - сегодня

Время (UTC), дата Ветер
(°,м/с) 
Видим.   Явления Облачность Т
(°С)
Тd
(°С)
f(%) Тe
(°С)
Pmin
(гПа)
dP
(гПа)
Po
(мм)
O2
(г/м3)
Тmin Tmax R s Состояние
почвы
21 21.05.18 190 (Ю) 20000 м  {ливн. осадки}  10/10 600 м кучево-дожд. 
[Cb cap]
+11 +9.5 90 +14  990.3  -3.2  698  269           
00 22.05.18 220 (ЮЗ) 20000 м  слаб. ливневой дождь  10/10 600 м кучево-дожд. 
[Cb cap]
+7.3 +5.4 88 +6  992.5  1.3  699  273  +7.3    19    влажная 
06 22.05.18 220 (ЮЗ) 4000 м  слаб. ливневой дождь  10/10 300 м кучево-дожд. 
[Cb cap]
+5.1 +2.3 82 +3  992.7  -1  699  276           
09 22.05.18 170 (Ю) 4000 м  слаб. ливневой дождь  10/10 600 м кучево-дожд. 
[Cb cap]
+3.5 +0.7 82 +4  992.9  -0.2  699  278           
12 22.05.18 тихо ()   20000 м  {ливн. осадки}  10/1 600 м кучево-дожд., средняя 
[Cb cap|Ac und]
+3.7 +1.9 88 +4  992.7  -0.2  698  277    +7.3     
15 22.05.18 150 (ЮВ) н/о    5/0 средняя 
[Ac As]
+1.8 +0.2 89 +3  992.6  -0.4  698  279           
18 22.05.18 тихо ()   н/о    3/0 средняя 
[Ac trans]
-1.2 -2.3 92 -1  993.5  0.1  698  283           
21 22.05.18 050 (СВ) 20000 м    1/1 1000 м 
[Sc]
-0.1 -1.5 90 +1  993.8  0.5  699  282           
00 23.05.18 090 (В) 20000 м    4/4 600 м 
[Cu Sc]
+4.7 -0.7 68 +4  993.5  0.8  699  277  -2        влажная 
03 23.05.18 120 (ЮВ) 20000 м  слаб. крупа{ливн. осадки}  10/10 600 м кучево-дожд. 
[Cb cap]
+6.8 -1.1 57 +6  992.6  -0.3  699  275           
09 23.05.18 140 (ЮВ) 20000 м  в посл. час ливневой дождь{гроза}  8/8 600 м кучево-дожд. 
[Cb cap]
+8.5 +1.4 61 +7  994.8  1.6  701  273           
12 23.05.18 020 (С) 20000 м  {гроза, ливн. осадки}  5/5 1000 м 
[Sc diur, vesp]
+6.5 +1.4 70 +6  996.6  1.3  702  276    +9.8     
15 23.05.18 300 (СЗ) н/о    ясно 
+1.9 -0.6 83 +3  999  1.2  703  281           
18 23.05.18 010 (С) н/о    ясно 
-0.1 -1.7 89 +1  1000.4  0.9  703  284           
21 23.05.18 350 (С) 20000 м    ясно 
+0 -2.1 86 -1  1002.3  1.8  705  284           
00 24.05.18 290 (З) 20000 м    1/1 600 м 
[Cu med, cong]
+9.8 +0.3 52 +11  1001.7  1.6  706  274  -2        влажная 
03 24.05.18 280 (З) 20000 м    6/6 1000 м 
[Cu hum]
+14.1 -3.1 30 +14  1001.5  0.7  706  271           
06 24.05.18 020 (С) 20000 м    3/3 1000 м 
[Cu hum]
+17.3 -7.4 18 +18  1001  0.1  706  268           
09 24.05.18 360 (С) 20000 м    3/3 1000 м 
[Sc diur, vesp]
+18.1 -5.2 20 +19  1001.8  0.9  707  268           
15 24.05.18 340 (С) н/о    ясно 
+10.6 -3.2 38 +10  1006.8  1.5  709  275           
18 24.05.18 тихо ()   н/о    ясно 
+2.5 -1.9 73 +3  1010  1.5  710  284           
21 24.05.18 300 (СЗ) 20000 м    6/0 средняя, верхняя 
[Ac trans|Ci fib]
+2.7 -2.1 71 +3  1011  711  284           
00 25.05.18 310 (СЗ) 20000 м    8/0 верхняя 
[Ci fib]
+17.2 -0.5 30 +18  1007.8  711  270  +0.8        влажная 
03 25.05.18 070 (В) 20000 м    10/1 600 м верхняя 
[Cu hum|Ci fib]
+21.6 +1.3 26 +22  1006.3  -0.6  711  265           
06 25.05.18 350 (С) 20000 м    10/4 1000 м верхняя 
[Cu med, cong|Ci fib]
+23.4 -0.2 21 +23  1004.8  -1  710  263           
Время (UTC), дата Ветер
(°,м/с) 
Видим.   Явления Облачность Т
(°С)
Тd
(°С)
f(%) Тe
(°С)
Pmin
(гПа)
dP
(гПа)
Po
(мм)
O2
(г/м3)
Тmin Tmax R s Состояние
почвы

Для получения пояснительной информации подведите курсор к названию столбца.

ПОГОДА Ерофей Павлович - архив

Всё, что Вы хотите узнать о погоде Ерофей Павлович - удобно и подробно!

Выберите нужную дату (начиная с 1 января 2015* года) и нажмите кнопку "Найти".
Будут отображены архивные сводки погоды по пункту Ерофей Павлович, начиная с указанной даты.


Отображать данные в формате CSV (для использования в таблицах Excel)


Внимание! Наш архив погоды предназначен исключительно для личного некоммерческого использования в познавательных целях. Если Вам необходимы официальные справки о состоянии погоды (для производственных, юридических, коммерческих и т.п. целей), обращайтесь в органы Росгидромета.

*Примечание: данная дата относится к архиву по метеостанциям СССР (Россия, СНГ, Балтия).
Архив по метеостанциям Зарубежной Европы и Азии (кроме Китая) хранится 10 дней, по другим регионам земного шара (Китай, Африка, Америка, Австралия, Океания) - 1 день.

Ерофей Павлович - район местоположения метеостанции


Название, широта, долгота, высота метеостанции:
Ерофей Павлович 54°ш. 121.9°д. 522 м над ур. моря [Российская Федерация]

Дополнительная информация

В oтличие oт бoльшинства пoгoдных сайтoв мы публикуем пoдрoбную метеoинфoрмацию в детальнoм прoфессиoнальнoм фoрмате.

Характеристики температуры и влажнoсти вoздуха измеряются на высoте 2 м в тени вдали oт зданий и деревьев.
Скoрoсть ветра измеряется на высoте 10 м (на урoвне рoста челoвека скoрoсть ветра ниже в 1.5-2 раза). Если метеoстанция нахoдится в гoрoде или в лесу, тo скoрoсть ветра занижена на 2-4 м/с пo сравнению с oткрытым местoм. Скoрoсть ветра над акватoриями крупных рек и oзёр, а также на вершинах хoлмoв на 2-5 м/с выше, чем в oбычных услoвиях.
Атмoсфернoе давление в разных тoчках местнoсти мoжет значительнo oтличаться oт давления на метеoстанции, в зависимoсти oт услoвий рельефа (при пoдъёме на 10 м давление пoнижается примернo на 1 мм рт.ст.).